TimeCDT,TemperatureF,Dew PointF,Humidity,Sea Level PressureIn,VisibilityMPH,Wind Direction,Wind SpeedMPH,Gust SpeedMPH,PrecipitationIn,Events,Conditions,WindDirDegrees,DateUTC
12:53 AM,48.0,44.1,86,29.91,8.0,SW,5.8,-,N/A,,Clear,230,2012-10-15 05:53:00
1:53 AM,48.9,44.1,83,29.91,8.0,WSW,5.8,-,N/A,,Clear,240,2012-10-15 06:53:00
2:53 AM,50.0,44.1,80,29.90,8.0,West,5.8,-,N/A,,Clear,270,2012-10-15 07:53:00
3:53 AM,48.9,44.1,83,29.91,8.0,West,5.8,-,N/A,,Clear,260,2012-10-15 08:53:00
4:53 AM,48.0,44.1,86,29.92,7.0,West,5.8,-,N/A,,Clear,260,2012-10-15 09:53:00
5:53 AM,48.9,44.1,83,29.93,7.0,West,4.6,-,N/A,,Clear,270,2012-10-15 10:53:00
6:53 AM,45.0,42.1,90,29.95,6.0,WSW,5.8,-,N/A,,Clear,240,2012-10-15 11:53:00
7:53 AM,48.0,45.0,89,29.97,4.0,West,4.6,-,N/A,,Clear,260,2012-10-15 12:53:00
8:53 AM,54.0,48.0,80,29.97,6.0,West,10.4,-,N/A,,Haze,280,2012-10-15 13:53:00
9:53 AM,57.9,46.9,67,29.99,7.0,WNW,10.4,-,N/A,,Clear,300,2012-10-15 14:53:00
10:53 AM,61.0,39.9,46,30.00,10.0,NNW,13.8,-,N/A,,Clear,330,2012-10-15 15:53:00
11:53 AM,62.1,37.9,41,30.00,10.0,WNW,12.7,-,N/A,,Clear,300,2012-10-15 16:53:00
12:53 PM,63.0,39.0,41,30.00,10.0,WNW,12.7,20.7,N/A,,Clear,290,2012-10-15 17:53:00
1:53 PM,64.0,39.0,40,29.98,10.0,NW,9.2,-,N/A,,Clear,310,2012-10-15 18:53:00
2:53 PM,64.9,39.0,39,29.97,10.0,WNW,12.7,17.3,N/A,,Clear,300,2012-10-15 19:53:00
3:53 PM,64.9,39.0,39,29.98,10.0,NW,10.4,-,N/A,,Clear,320,2012-10-15 20:53:00
4:53 PM,64.0,39.9,41,29.98,9.0,NW,9.2,-,N/A,,Clear,320,2012-10-15 21:53:00
5:53 PM,59.0,42.1,53,29.97,10.0,NW,5.8,-,N/A,,Clear,310,2012-10-15 22:53:00
6:53 PM,57.0,43.0,59,29.97,10.0,Calm,Calm,-,N/A,,Clear,0,2012-10-15 23:53:00
7:53 PM,52.0,45.0,77,29.98,10.0,Calm,Calm,-,N/A,,Clear,0,2012-10-16 00:53:00
8:53 PM,50.0,44.1,80,29.99,8.0,Calm,Calm,-,N/A,,Clear,0,2012-10-16 01:53:00
9:53 PM,48.9,41.0,74,29.99,10.0,Calm,Calm,-,N/A,,Clear,0,2012-10-16 02:53:00
10:53 PM,46.0,41.0,83,30.00,8.0,Calm,Calm,-,N/A,,Clear,0,2012-10-16 03:53:00
11:53 PM,44.1,41.0,89,29.99,7.0,Calm,Calm,-,N/A,,Clear,0,2012-10-16 04:53:00